Regional Weather Roundup
Issued by NWS

Home | Current Version | Previous Version | Graphics & Text | Print | Product List | Glossary On
Versions: 1 2 3 4 5 6 7 8 9 10 11 12 13 14 15 16 17 18 19 20 21 22 23 24 25 26 27 28 29 30 31 32 33 34 35 36 37 38 39 40 41 42 43 44 45 46 47 48 49 50
000
ASUS43 KLOT 301803
RWRIL

ILLINOIS REGIONAL WEATHER ROUNDUP
NATIONAL WEATHER SERVICE CHICAGO/ROMEOVILLE IL
100 PM CDT SUN APR 30 2017

NOTE: "FAIR" INDICATES FEW OR NO CLOUDS BELOW 12,000 FEET WITH NO
SIGNIFICANT WEATHER AND/OR OBSTRUCTIONS TO VISIBILITY.

* THESE STATIONS ARE NOT UNDER NWS QUALITY CONTROL. THEY ALSO MAY NOT
  REPORT WEATHER SUCH AS PRECIPITATION OR FOG.

ILZ001-002-007-009-015-016-024-301900-
NORTHWEST ILLINOIS

CITY           SKY/WX    TMP DP  RH WIND       PRES   REMARKS
MOLINE         CLOUDY    47  43  86 NE13      29.74F FOG
6HR MIN TEMP:  44; 6HR MAX TEMP:  47; 6HR PCP:  0.03;

STERLING*      CLOUDY    47  45  93 NE13      29.76F
$$

ILZ003-004-008-010-011-017-018-301900-
NORTH CENTRAL ILLINOIS

CITY           SKY/WX    TMP DP  RH WIND       PRES   REMARKS
ROCKFORD       DRIZZLE   47  44  90 NE18      29.82F FOG
6HR MIN TEMP:  42; 6HR MAX TEMP:  47; 6HR PCP:  0.14;

FREEPORT*      CLOUDY    44  42  93 NE16      29.83F
ROCHELLE*      CLOUDY    45  44  95 NE22      29.79F
DE KALB*       LGT RAIN  46  45  96 NE17      29.80F
$$

ILZ005-006-012>014-019>023-301900-
NORTHEAST ILLINOIS

CITY           SKY/WX    TMP DP  RH WIND       PRES   REMARKS
CHICAGO-OHARE  LGT RAIN  46  43  89 N17       29.81F FOG
6HR MIN TEMP:  43; 6HR MAX TEMP:  47; 6HR PCP:  0.19;

CHICAGO-MIDWAY CLOUDY    47  46  97 N12G23    29.81R
6HR MIN TEMP:  44; 6HR MAX TEMP:  47; 6HR PCP:  0.13;

AURORA         LGT RAIN  48  46  93 N16       29.79F FOG
6HR MIN TEMP:  43; 6HR MAX TEMP:  48; 6HR PCP:  0.21;

LANSING*       CLOUDY    49  49 100 N6        29.80S FOG
WAUKEGAN       CLOUDY    44  43  96 N17G25    29.82F FOG
6HR MIN TEMP:  41; 6HR MAX TEMP:  44; 6HR PCP:  0.13;

DUPAGE AIRPORT LGT RAIN  47  47 100 N16       29.80F FOG
6HR MIN TEMP:  42; 6HR MAX TEMP:  47; 6HR PCP:  0.17;

WHEELING       LGT RAIN  44  44 100 N13G21    29.83F FOG
6HR MIN TEMP:  41; 6HR MAX TEMP:  45; 6HR PCP:  0.21;

MORRIS*        CLOUDY    49  47  93 NE5       29.78F
NORTHERLY ISL    N/A     45  43  93 N13         N/A
$$

LMZ740>746-301900-
SOUTHERN LAKE MICHIGAN

STATION/POSITION SKY/WX   TEMP    WIND        PRES    VSBY  WAVE
                          AIR SEA DIR/SP/G                  HT/PER
                          (F)     (DEG/KT/KT) (MB)    (MI)  (FT/S)
SOUTHERN BUOY              42 40   50/ 12/ 14 1011.5          5/ 5
HARRISON CRIB              44     360/ 18/ 22   N/A
BURNHAM HARBOR             44      10/ 12/ 18   N/A
CALUMET HARBOR             46     330/ 10/ 16 1008.9F
BURNS HARBOR               46     340/  9/ 12 1009.5F
MICHIGAN CITY              50     280/ 10/ 11   N/A
MICHIGAN CITY 6N           45 49                N/A           2/ 5
ST. JOSEPH                 50 46  180/  2/  2 1009.0F         2/ 4
$$

ILZ025>027-034>036-040-047-049-050-058-095>099-301900-
WEST-CENTRAL ILLINOIS

CITY           SKY/WX    TMP DP  RH WIND       PRES   REMARKS
QUINCY         LGT RAIN  51  51 100 NE12      29.66S FOG
GALESBURG*     CLOUDY    47  47  97 NE14G20   29.72R
MACOMB*        CLOUDY    48  48 100 NE14      29.74R
JACKSONVILLE*  LGT RAIN  62  61  96 SE15G22   29.65F
PITTSFIELD*    LGT RAIN  61  61 100 SE12      29.66F
$$

ILZ028>032-037-038-041>044-048-051>054-059>061-301900-
CENTRAL ILLINOIS

CITY           SKY/WX    TMP DP  RH WIND       PRES   REMARKS
BLOOMINGTON    LGT RAIN  54  53  97 N15       29.72F FOG
DECATUR        LGT RAIN  64  64 100 S16G25    29.73F
PEORIA         CLOUDY    49  48  97 NE16      29.71F FOG
6HR MIN TEMP:  48; 6HR MAX TEMP:  50; 6HR PCP:  0.04;

SPRINGFIELD    LGT RAIN  65  62  90 S15       29.69F
6HR MIN TEMP:  50; 6HR MAX TEMP:  65; 6HR PCP:  0.04;

TAYLORVILLE    NOT AVBL
$$

ILZ033-039-045-046-055>057-062-063-301900-
EAST-CENTRAL ILLINOIS

CITY           SKY/WX    TMP DP  RH WIND       PRES   REMARKS
CHAMPAIGN      LGT RAIN  65  62  90 S29G36    29.75S
MATTOON        RAIN      64  63  96 S13       29.77F
$$

ILZ079-100>102-301900-
SOUTHWEST ILLINOIS

CITY           SKY/WX    TMP DP  RH WIND       PRES   REMARKS
ALTON          LGT RAIN  63  61  94 E12G17    29.69F
BELLEVILLE     CLOUDY    64  64 100 SE9       29.69F
CAHOKIA*       LGT RAIN  66  63  90 SE16      29.67F
$$

ILZ064>066-069>071-074>076-080>082-084>086-088>090-092>094-301900-
SOUTH-CENTRAL ILLINOIS

CITY           SKY/WX    TMP DP  RH WIND       PRES   REMARKS
CARBONDALE     LGT RAIN  66  66 100 SE10      29.72F
6HR MIN TEMP:  63; 6HR MAX TEMP:  66; 6HR PCP:  1.07;

CAIRO*           N/A     67  66  96 E10       29.68F
EFFINGHAM*     RAIN      65  65 100 SE10G16   29.79F
MARION         LGT RAIN  68  66  94 SE12      29.75F
MT. VERNON     LGT RAIN  65  64  97 E7        29.75F
CENTRALIA*     LGT RAIN  66  65  99 SE12      29.73F
SALEM*         RAIN      66  64  93 SE8       29.75F
$$

ILZ067-068-072-073-078-083-087-091-301900-
SOUTHEAST ILLINOIS

CITY           SKY/WX    TMP DP  RH WIND       PRES   REMARKS
LAWRENCEVILLE  LGT RAIN  65  65 100 SE10      29.83F
FLORA*         LGT RAIN  66  65  96 SE10      29.79F
FAIRFIELD*     LGT RAIN  65  65 100 E6        29.76F
HARRISBURG*    CLOUDY    67  65  96 SE8       29.77F
ROBINSON*      RAIN      64  64  99 SE9       29.82F
CARMI*         CLOUDY    65  65 100 E9        29.78F
$$

ABBREVIATIONS USED IN REMARKS
   TC - TEMPERATURE IN CELSIUS
  WCI - WIND CHILL INDEX
   HX - HEAT INDEX
  VSB - VISIBILITY
$$




USA.gov is the U.S. government's official web portal to all federal, state and local government web resources and services.